NOAA 16 DEB, 41138

Orbit data source: Space-Track

NOAA 16 DEB, 41138 is space debris in SSO originally from a launch on Thu, 21 Sep 2000 UTC launched from the Air Force Western Test Range (AFWTR). Debris objects in space refer to the collection of defunct objects orbiting the Earth. Examples of debris include non-operational satellites, rocket bodies, and fragments generated from explosions, collisions, or faulty payload assembly.

Loading next visibility...
Identifier
41138, 2000-055BV
Orbit
SSO
Country
Flag of USUS
Related business
Manufacturer
Unknown
Mission
Spacecraft
Bus & Motor
Unknown
Mass
Unknown
Launch date (UTC)
2000-09-21 (26 years ago)
Launch vehicle
Unknown
Launch site
Air Force Western Test Range (AFWTR)
Object type
Payload
Rocket body
Debris
Shape & HBR
Unknown shape, 0.1 m
Radar Cross Section
Small (<0.1 m²)

Expand to show TLE details & history
Last TLE update: 10 hours ago

TLE from 10 hours ago
0 NOAA 16 DEB
1 41138U 00055BV  26263.49882629 -.00000636  00000-0 -24526-3 0  9993
2 41138  98.7020 348.2831 0012512 104.0833 256.1738 14.26587074557861
Epoch: 2026-09-20T11:58Z
TLE epoch observation values (Epoch: 2026-09-20T11:58:18.591Z)
Latitude
-0.00008°
Longitude
169.31351°
Altitude
808.244 km
Speed
7.448 km/s
True Right ascension
23h 13m 07s
True Declination
0° 00' 00"
Sunlit
Object was in full shadow at epoch
Visualization orbit readout
Latitude
Unknown
Longitude
Unknown
Altitude
Unknown
Speed
Unknown
Apparent Right ascension
Unknown
Apparent Declination
Unknown
Sunlit
N/A
Visualization observer readout
Local Sidereal Time
15:02:24
Azimuth
Unknown
Elevation
Unknown
Doppler factor
Unknown
Orbital elements
Apogee altitude
809.293 km
Perigee altitude
791.329 km
Semi-major axis
7,178.448 km
Eccentricity
0.00125
Inclination
98.702°
RAAN
348.2831°
Arg. of periapsis
104.0833°
True anomaly
256.03463°
Mean anomaly
256.1738°
Eccentric anomaly
256.10421°
Mean motion
3.5686 °/min
Orbital period
100.88 mins
BSTAR
-0.00024526
Loading maneuver chart data...
Computing Atmospheric mass density...

Documentation

Showing up to 5 results
|